Location: Alsip
(41.6689°N, 87.7387°W)
Time: 15:22:30
(UTC+00:00)

Cosmos 2173 Rocket - Pass Details

Date: 14 July 2020
Orbit: 944 x 1002 km, 83.0° (Epoch: 12 August)

Event Time Altitude Azimuth Distance (km) Brightness Sun altitude
Exits shadow 06:56:53 48° 151° (SSE) 1,287 4.3 -25.2°
Maximum altitude 06:58:33 65° 93° (E) 1,089 4.2 -25.1°
Drops below altitude 10° 07:04:48 10° 13° (NNE) 2,753 7.4 -24.8°
Sets 07:07:20 0° 11° (N) 3,698 8.4 -24.7°
